User: anonymous
Location: Caltech
(34.1382°N, 118.1253°W)
Time: 14:17:56
(UTC-07:00)
Language:

Cosmos 1025 Rocket - Orbit

View from above orbital plane
View from above orbital plane
View from above satellite
View from above satellite

Ground track
Ground track

The orbit data is extracted from the following two-line orbital elements,

1 10974U 78067B   14245.48993547  .00000300  00000-0  30884-4 0  3853
2 10974 082.4809 053.6995 0019157 117.4470 295.0763 14.86636667956182
Epoch (UTC): 02 September 2014 11:45:30
Eccentricity: 0.0019157
inclination: 82.4809°
perigee height: 595 km
apogee height: 622 km
right ascension of ascending node: 53.6995°
argument of perigee: 117.4470°
revolutions per day: 14.86636667
mean anomaly at epoch: 295.0763°
orbit number at epoch: 95618

The dashed part of the orbit path shows where the satellite is in the earth's shadow,  

DLR